Regional Weather Roundup
Issued by NWS Sioux Falls, SD

Home | Current Version | Previous Version | Graphics & Text | Print | Product List | Glossary Off
Versions: 1 2 3 4 5 6 7 8 9 10 11 12 13 14 15 16 17 18 19 20 21 22 23 24 25 26 27 28 29 30 31 32 33 34 35 36 37 38 39 40 41 42 43 44 45 46 47 48 49 50

585
ASUS43 KFSD 261110
RWRFSD

WEATHER ROUNDUP FOR SE SOUTH DAKOTA/SW MINNESOTA/NW IOWA
NATIONAL WEATHER SERVICE SIOUX FALLS SD
600 AM CDT MON JUN 26 2017

NOTE: "FAIR" INDICATES FEW OR NO CLOUDS BELOW 12,000 FEET WITH NO
SIGNIFICANT WEATHER AND OR OBSTRUCTIONS TO VISIBILITY.


SDZ038>040-050-052>070-261200-
SOUTHEAST SOUTH DAKOTA

CITY           SKY/WX    TMP DP  RH WIND       PRES   REMARKS
BROOKINGS      CLEAR     44  43  96 CALM      30.22R
CHAMBERLAIN    CLEAR     47  45  93 N3        30.22S
HURON          CLEAR     44  44 100 CALM      30.22R
MADISON        FAIR      45  45 100 N6        30.22R
MITCHELL       CLEAR     48  48 100 NW5       30.22R
SIOUX FALLS    PTCLDY    49  49 100 CALM      30.21R
WINNER         FAIR      50  45  83 CALM      30.23R
YANKTON        PTCLDY    53  50  89 CALM      30.20R
$$

MNZ071-072-080-081-089-090-097-098-261200-
SOUTHWEST MINNESOTA

CITY           SKY/WX    TMP DP  RH WIND       PRES   REMARKS
FAIRMONT       CLEAR     52  48  86 NW8       30.19S
JACKSON        CLEAR     48  46  93 CALM      30.20S
LUVERNE        FOG       50  46  87 CALM      30.21R VSB 3/4
MARSHALL       CLEAR     45  43  93 NW7       30.21R
MONTEVIDEO     CLEAR     46  43  87 N3        30.21R
PIPESTONE      CLEAR     52  46  82 N3        30.20S
REDWOOD FALLS  CLEAR     47  44  90 NW6       30.19R
TRACY          CLEAR     50  46  88 NW6       30.21S
WINDOM         CLEAR     48  45  87 CALM      30.20R
WORTHINGTON    CLEAR     49  46  90 N3        30.21R
$$

IAZ001>003-012>014-020>022-031-032-NEZ013-014-SDZ071-261200-
NORTHWEST IOWA

CITY           SKY/WX    TMP DP  RH WIND       PRES   REMARKS
CHEROKEE       PTCLDY    49  49 100 NE7       30.19R
DENISON        CLOUDY    54  52  94 E8        30.21F
ESTHERVILLE    CLEAR     50  50 100 NW6       30.18F
LE MARS        PTCLDY    50  50 100 CALM      30.19S
ORANGE CITY    CLEAR     54  52  94 CALM      30.20R
SHELDON        CLEAR     50  50 100 CALM      30.19R FOG
SIOUX CITY     CLOUDY    54  53  97 SE6       30.19F
SPENCER        CLEAR     50  49  96 N5        30.19S
STORM LAKE     PTCLDY    52  50  93 S8        30.19S
$$

ABBREVIATIONS USED IN REMARKS
   TC - TEMPERATURE IN CELSIUS
  WCI - WIND CHILL INDEX
   HX - HEAT INDEX
  VSB - VISIBILITY





USA.gov is the U.S. government's official web portal to all federal, state and local government web resources and services.